Weather History for Volk, WI

Change the Weather History Date:

Tuesday, February 19, 2013

  Actual Average Record
Temperature  
Mean Temperature 12 °F -  
Max Temperature 19 °F 31 °F 44 °F (2014)
Min Temperature 5 °F 19 °F -15 °F (2008)
Degree Days  
Heating Degree Days 53    
Moisture  
Dew Point 6 °F    
Average Humidity 76    
Maximum Humidity 87    
Minimum Humidity 57    
Precipitation  
Precipitation 0.01 in - - ()
Snow  
Snow 0.00 in - - ()
Snow Depth 5.00 in    
Sea Level Pressure  
Sea Level Pressure 29.80 in    
Wind  
Wind Speed 20 mph (WNW)    
Max Wind Speed 23 mph    
Max Gust Speed 33 mph    
Visibility 6 miles    
Events Rain , Snow    
Averages and records for this station are not official NWS values.
T = Trace of Precipitation, MM = Missing Value Source: NWS Daily Summary

Daily Weather History Graph

Daily Weather History Graph

Search for Another Location

Airport:

Trip Planner

Search our weather history database for the weather conditions in past years. The results will help you decide how hot, cold, wet, or windy it might be!

Date:

Astronomy

Feb. 19, 2013 Rise Set
Actual Time 6:53 AM CST 5:36 PM CST
Civil Twilight 6:24 AM CST 6:05 PM CST
Nautical Twilight 5:50 AM CST 6:39 PM CST
Astronomical Twilight 5:17 AM CST 7:12 PM CST
Moon 12:01 PM CST (2/19) 2:31 AM CST (2/19)
Length of Visible Light 11h 41m
Length of Day
10h 43m
Waxing Gibbous, 67% of the Moon is Illuminated
Feb 19
Waxing Gibbous
Feb 25
Full
Mar 4
Last Quarter
Mar 11
New
Mar 19
First Quarter

Hourly Weather History & Observations

Time (CST) Temp. Windchill Dew Point Humidity Pressure Visibility Wind Dir Wind Speed Gust Speed Precip Events Conditions
12:07 AM 19.4 °F 2.5 °F 15.8 °F 86% 29.61 in 10.0 mi West 23.0 mph 33.4 mph N/A Snow Light Snow
12:10 AM 19.4 °F 2.5 °F 15.8 °F 86% 29.61 in 10.0 mi WNW 23.0 mph 33.4 mph N/A   Light Freezing Drizzle
12:13 AM 19.4 °F 2.8 °F 15.8 °F 86% 29.61 in 10.0 mi WNW 21.9 mph 33.4 mph N/A   Overcast
12:14 AM 19.4 °F 4.1 °F 15.8 °F 86% 29.61 in 10.0 mi WNW 18.4 mph 33.4 mph N/A   Light Freezing Drizzle
12:19 AM 19.4 °F 5.0 °F 15.8 °F 86% 29.61 in 10.0 mi WNW 16.1 mph - N/A   Light Freezing Drizzle
12:33 AM 19.4 °F 2.8 °F 15.8 °F 86% 29.61 in 10.0 mi West 21.9 mph - N/A Snow Light Snow
12:40 AM 19.4 °F 3.6 °F 15.8 °F 86% 29.62 in 10.0 mi West 19.6 mph - N/A Rain Light Freezing Rain
12:55 AM 18.5 °F 1.6 °F 15.3 °F 87% 29.62 in 10.0 mi West 21.9 mph 28.8 mph 0.00 in Snow Light Snow
1:41 AM 17.6 °F 1.3 °F 14.0 °F 86% 29.62 in 7.0 mi West 19.6 mph 27.6 mph N/A Snow Light Snow
1:55 AM 17.6 °F 1.7 °F 13.8 °F 85% 29.63 in 4.0 mi West 18.4 mph - 0.00 in Snow Light Snow
2:00 AM 17.6 °F 1.7 °F 14.0 °F 86% 29.63 in 2.5 mi West 18.4 mph 26.5 mph N/A Snow Light Snow
2:03 AM 17.6 °F 1.7 °F 14.0 °F 86% 29.63 in 2.0 mi West 18.4 mph 26.5 mph N/A Snow Light Snow
2:06 AM 17.6 °F 2.7 °F 14.0 °F 86% 29.63 in 1.8 mi West 16.1 mph 26.5 mph N/A Snow Light Snow
2:10 AM 17.6 °F 2.2 °F 14.0 °F 86% 29.63 in 2.0 mi West 17.3 mph - N/A Snow Light Snow
2:16 AM 17.6 °F 0.5 °F 14.0 °F 86% 29.63 in 2.5 mi West 21.9 mph 26.5 mph N/A Snow Light Snow
2:22 AM 17.6 °F 2.2 °F 12.2 °F 79% 29.64 in 3.0 mi West 17.3 mph 27.6 mph N/A Snow Light Snow
2:55 AM 16.2 °F -0.6 °F 11.8 °F 83% 29.65 in 7.0 mi West 19.6 mph 25.3 mph 0.00 in Snow Light Snow
3:55 AM 15.1 °F -1.6 °F 10.0 °F 80% 29.68 in 8.0 mi West 18.4 mph 25.3 mph 0.00 in Snow Light Snow
4:37 AM 14.0 °F -2.5 °F 8.6 °F 79% 29.70 in 4.0 mi West 17.3 mph 28.8 mph N/A Snow Light Snow
4:48 AM 14.0 °F -3.9 °F 8.6 °F 79% 29.71 in 4.0 mi West 20.7 mph 28.8 mph N/A Snow Light Snow
4:55 AM 12.9 °F -6.1 °F 7.5 °F 79% 29.72 in 4.0 mi WNW 23.0 mph 31.1 mph 0.00 in Snow Light Snow
4:57 AM 12.2 °F -5.3 °F 6.8 °F 79% 29.72 in 4.0 mi WNW 18.4 mph 31.1 mph N/A Snow Light Snow
5:09 AM 12.2 °F -3.7 °F 6.8 °F 79% 29.73 in 4.0 mi WNW 15.0 mph - N/A Snow Light Snow
5:18 AM 12.2 °F -6.3 °F 6.8 °F 79% 29.73 in 2.5 mi West 20.7 mph 28.8 mph N/A Snow Light Snow
5:22 AM 12.2 °F -5.8 °F 6.8 °F 79% 29.73 in 3.0 mi WNW 19.6 mph 29.9 mph N/A Snow Light Snow
5:35 AM 12.2 °F -5.8 °F 6.8 °F 79% 29.74 in 3.0 mi West 19.6 mph 26.5 mph N/A Snow Light Snow
5:55 AM 10.9 °F -7.5 °F 6.1 °F 81% 29.75 in 3.0 mi West 19.6 mph 26.5 mph 0.00 in Snow Light Snow
5:59 AM 10.4 °F -9.1 °F 5.0 °F 79% 29.75 in 2.5 mi West 21.9 mph 26.5 mph N/A Snow Light Snow
6:11 AM 10.4 °F -8.2 °F 5.0 °F 79% 29.75 in 2.5 mi West 19.6 mph 25.3 mph N/A Snow Light Snow
6:15 AM 10.4 °F -8.2 °F 5.0 °F 79% 29.76 in 3.0 mi West 19.6 mph 27.6 mph N/A Snow Light Snow
6:16 AM 10.4 °F -8.2 °F 5.0 °F 79% 29.75 in 2.5 mi West 19.6 mph 27.6 mph N/A Snow Light Snow
6:17 AM 10.4 °F -7.7 °F 5.0 °F 79% 29.76 in 3.0 mi West 18.4 mph 27.6 mph N/A Snow Light Snow
6:18 AM 10.4 °F -6.6 °F 5.0 °F 79% 29.76 in 3.0 mi West 16.1 mph 27.6 mph N/A Snow Light Snow
6:38 AM 10.4 °F -8.2 °F 5.0 °F 79% 29.77 in 2.5 mi West 19.6 mph 27.6 mph N/A Snow Light Snow
6:44 AM 10.4 °F -6.6 °F 5.0 °F 79% 29.78 in 3.0 mi West 16.1 mph 27.6 mph N/A Snow Light Snow
6:55 AM 10.4 °F -9.1 °F 5.0 °F 79% 29.78 in 0.5 mi West 21.9 mph 28.8 mph N/A Snow Light Snow
7:50 AM 8.6 °F -10.5 °F 1.4 °F 73% 29.77 in 4.0 mi NW 19.6 mph 29.9 mph N/A Snow Blowing Snow
7:55 AM 8.6 °F -10.0 °F 1.4 °F 73% 29.83 in 3.0 mi WNW 18.4 mph 27.6 mph N/A Snow Blowing Snow
8:55 AM 8.6 °F -11.0 °F 1.4 °F 73% 29.86 in 5.0 mi WNW 20.7 mph 29.9 mph N/A Snow Light Snow
9:00 AM 8.6 °F -11.0 °F 1.4 °F 73% 29.86 in 10.0 mi WNW 20.7 mph 29.9 mph N/A   Overcast
9:55 AM 8.6 °F -11.9 °F -0.4 °F 67% 29.89 in 10.0 mi West 23.0 mph 33.4 mph N/A Snow Light Blowing Snow
10:55 AM 8.6 °F -10.5 °F -2.2 °F 62% 29.92 in 7.0 mi NW 19.6 mph 26.5 mph N/A Snow Light Blowing Snow
11:55 AM 8.6 °F -11.4 °F -2.2 °F 62% 29.95 in 10.0 mi WNW 21.9 mph 29.9 mph 0.01 in Snow Light Blowing Snow
12:55 PM 8.6 °F -10.5 °F -2.2 °F 62% 29.96 in 10.0 mi WNW 19.6 mph 29.9 mph N/A   Mostly Cloudy
1:55 PM 10.4 °F -8.2 °F -0.4 °F 62% 29.99 in 10.0 mi West 19.6 mph 29.9 mph N/A   Mostly Cloudy
2:55 PM 10.4 °F -7.7 °F -2.2 °F 57% 30.01 in 10.0 mi WNW 18.4 mph 27.6 mph N/A   Scattered Clouds
3:55 PM 10.4 °F -8.6 °F -2.2 °F 57% 30.06 in 10.0 mi West 20.7 mph 26.5 mph N/A   Partly Cloudy
4:55 PM 10.4 °F -7.2 °F -2.2 °F 57% 30.09 in 10.0 mi WNW 17.3 mph 28.8 mph N/A   Partly Cloudy
6:55 PM 8.6 °F -8.9 °F -2.2 °F 62% 30.16 in 10.0 mi WNW 16.1 mph - N/A   Scattered Clouds
7:55 PM 6.8 °F -8.6 °F -4.0 °F 61% 30.19 in 10.0 mi WNW 11.5 mph - N/A   Clear
8:55 PM 6.8 °F -8.6 °F -4.0 °F 61% 30.22 in 10.0 mi WNW 11.5 mph - N/A   Clear
9:55 PM 5.0 °F -10.8 °F -4.0 °F 66% 30.24 in 10.0 mi WNW 11.5 mph - N/A   Clear
10:55 PM 5.0 °F -11.6 °F -5.8 °F 61% 30.25 in 10.0 mi WNW 12.7 mph - N/A   Clear
11:55 PM 5.0 °F -10.8 °F -5.8 °F 61% 30.27 in 10.0 mi WNW 11.5 mph - N/A   Clear